Year,Month,Day,Hour,Minute,Value (Times are PST for temperature in C)
2015,06,03,00,00,12.60
2015,06,03,00,01,12.60
2015,06,03,00,02,12.60
2015,06,03,00,03,12.60
2015,06,03,00,04,12.60
2015,06,03,00,05,12.60
2015,06,03,00,06,12.60
2015,06,03,00,07,12.60
2015,06,03,00,08,12.60
2015,06,03,00,09,12.70
2015,06,03,00,10,12.70
2015,06,03,00,11,12.70
2015,06,03,00,12,12.70
2015,06,03,00,13,12.70
2015,06,03,00,14,12.70
2015,06,03,00,15,12.70
2015,06,03,00,16,12.70
2015,06,03,00,17,12.70
2015,06,03,00,18,12.70
2015,06,03,00,19,12.70
2015,06,03,00,20,12.70
2015,06,03,00,21,12.70
2015,06,03,00,22,12.70
2015,06,03,00,23,12.70
2015,06,03,00,24,12.70
2015,06,03,00,25,12.70
2015,06,03,00,26,12.70
2015,06,03,00,27,12.70
2015,06,03,00,28,12.70
2015,06,03,00,29,12.70
2015,06,03,00,30,12.60
2015,06,03,00,31,12.60
2015,06,03,00,32,12.60
2015,06,03,00,33,12.60
2015,06,03,00,34,12.60
2015,06,03,00,35,12.60
2015,06,03,00,36,12.60
2015,06,03,00,37,12.60
2015,06,03,00,38,12.60
2015,06,03,00,39,12.60
2015,06,03,00,40,12.60
2015,06,03,00,41,12.60
2015,06,03,00,42,12.60
2015,06,03,00,43,12.60
2015,06,03,00,44,12.60
2015,06,03,00,45,12.60
2015,06,03,00,46,12.60
2015,06,03,00,47,12.60
2015,06,03,00,48,12.60
2015,06,03,00,49,12.60
2015,06,03,00,50,12.60
2015,06,03,00,51,12.60
2015,06,03,00,52,12.60
2015,06,03,00,53,12.60
2015,06,03,00,54,12.60
2015,06,03,00,55,12.60
2015,06,03,00,56,12.70
2015,06,03,00,57,12.70
2015,06,03,00,58,12.70
2015,06,03,00,59,12.60
2015,06,03,01,00,12.70
2015,06,03,01,01,12.60
2015,06,03,01,02,12.60
2015,06,03,01,03,12.60
2015,06,03,01,04,12.60
2015,06,03,01,05,12.70
2015,06,03,01,06,12.70
2015,06,03,01,07,12.60
2015,06,03,01,08,12.60
2015,06,03,01,09,12.60
2015,06,03,01,10,12.70
2015,06,03,01,11,12.60
2015,06,03,01,12,12.60
2015,06,03,01,13,12.60
2015,06,03,01,14,12.60
2015,06,03,01,15,12.60
2015,06,03,01,16,12.60
2015,06,03,01,17,12.60
2015,06,03,01,18,12.60
2015,06,03,01,19,12.60
2015,06,03,01,20,12.60
2015,06,03,01,21,12.60
2015,06,03,01,22,12.70
2015,06,03,01,23,12.70
2015,06,03,01,24,12.70
2015,06,03,01,25,12.70
2015,06,03,01,26,12.70
2015,06,03,01,27,12.70
2015,06,03,01,28,12.70
2015,06,03,01,29,12.70
2015,06,03,01,30,12.70
2015,06,03,01,31,12.70
2015,06,03,01,32,12.70
2015,06,03,01,33,12.70
2015,06,03,01,34,12.60
2015,06,03,01,35,12.60
2015,06,03,01,36,12.60
2015,06,03,01,37,12.60
2015,06,03,01,38,12.60
2015,06,03,01,39,12.60
2015,06,03,01,40,12.60
2015,06,03,01,41,12.60
2015,06,03,01,42,12.60
2015,06,03,01,43,12.60
2015,06,03,01,44,12.60
2015,06,03,01,45,12.50
2015,06,03,01,46,12.50
2015,06,03,01,47,12.50
2015,06,03,01,48,12.50
2015,06,03,01,49,12.50
2015,06,03,01,50,12.50
2015,06,03,01,51,12.50
2015,06,03,01,52,12.50
2015,06,03,01,53,12.50
2015,06,03,01,54,12.50
2015,06,03,01,55,12.50
2015,06,03,01,56,12.50
2015,06,03,01,57,12.50
2015,06,03,01,58,12.50
2015,06,03,01,59,12.50
2015,06,03,02,00,12.50
2015,06,03,02,01,12.50
2015,06,03,02,02,12.50
2015,06,03,02,03,12.50
2015,06,03,02,04,12.50
2015,06,03,02,05,12.50
2015,06,03,02,06,12.50
2015,06,03,02,07,12.50
2015,06,03,02,08,12.50
2015,06,03,02,09,12.50
2015,06,03,02,10,12.50
2015,06,03,02,11,12.50
2015,06,03,02,12,12.50
2015,06,03,02,13,12.50
2015,06,03,02,14,12.50
2015,06,03,02,15,12.60
2015,06,03,02,16,12.60
2015,06,03,02,17,12.60
2015,06,03,02,18,12.60
2015,06,03,02,19,12.60
2015,06,03,02,20,12.60
2015,06,03,02,21,12.60
2015,06,03,02,22,12.60
2015,06,03,02,23,12.60
2015,06,03,02,24,12.60
2015,06,03,02,25,12.60
2015,06,03,02,26,12.60
2015,06,03,02,27,12.60
2015,06,03,02,28,12.60
2015,06,03,02,29,12.60
2015,06,03,02,30,12.60
2015,06,03,02,31,12.50
2015,06,03,02,32,12.50
2015,06,03,02,33,12.50
2015,06,03,02,34,12.50
2015,06,03,02,35,12.50
2015,06,03,02,36,12.50
2015,06,03,02,37,12.50
2015,06,03,02,38,12.50
2015,06,03,02,39,12.50
2015,06,03,02,40,12.50
2015,06,03,02,41,12.40
2015,06,03,02,42,12.40
2015,06,03,02,43,12.40
2015,06,03,02,44,12.40
2015,06,03,02,45,12.40
2015,06,03,02,46,12.40
2015,06,03,02,47,12.40
2015,06,03,02,48,12.40
2015,06,03,02,49,12.40
2015,06,03,02,50,12.40
2015,06,03,02,51,12.30
2015,06,03,02,52,12.30
2015,06,03,02,53,12.40
2015,06,03,02,54,12.30
2015,06,03,02,55,12.30
2015,06,03,02,56,12.30
2015,06,03,02,57,12.30
2015,06,03,02,58,12.30
2015,06,03,02,59,12.30
2015,06,03,03,00,12.30
2015,06,03,03,01,12.30
2015,06,03,03,02,12.30
2015,06,03,03,03,12.30
2015,06,03,03,04,12.30
2015,06,03,03,05,12.30
2015,06,03,03,06,12.30
2015,06,03,03,07,12.30
2015,06,03,03,08,12.30
2015,06,03,03,09,12.30
2015,06,03,03,10,12.30
2015,06,03,03,11,12.20
2015,06,03,03,12,12.20
2015,06,03,03,13,12.20
2015,06,03,03,14,12.20
2015,06,03,03,15,12.20
2015,06,03,03,16,12.20
2015,06,03,03,17,12.20
2015,06,03,03,18,12.20
2015,06,03,03,19,12.20
2015,06,03,03,20,12.20
2015,06,03,03,21,12.20
2015,06,03,03,22,12.20
2015,06,03,03,23,12.20
2015,06,03,03,24,12.20
2015,06,03,03,25,12.20
2015,06,03,03,26,12.20
2015,06,03,03,27,12.20
2015,06,03,03,28,12.20
2015,06,03,03,29,12.20
2015,06,03,03,30,12.20
2015,06,03,03,31,12.20
2015,06,03,03,32,12.20
2015,06,03,03,33,12.20
2015,06,03,03,34,12.20
2015,06,03,03,35,12.20
2015,06,03,03,36,12.20
2015,06,03,03,37,12.20
2015,06,03,03,38,12.20
2015,06,03,03,39,12.20
2015,06,03,03,40,12.20
2015,06,03,03,41,12.20
2015,06,03,03,42,12.20
2015,06,03,03,43,12.20
2015,06,03,03,44,12.20
2015,06,03,03,45,12.20
2015,06,03,03,46,12.20
2015,06,03,03,47,12.20
2015,06,03,03,48,12.10
2015,06,03,03,49,12.20
2015,06,03,03,50,12.20
2015,06,03,03,51,12.20
2015,06,03,03,52,12.20
2015,06,03,03,53,12.20
2015,06,03,03,54,12.20
2015,06,03,03,55,12.20
2015,06,03,03,56,12.10
2015,06,03,03,57,12.10
2015,06,03,03,58,12.10
2015,06,03,03,59,12.10
2015,06,03,04,00,12.10
2015,06,03,04,01,12.10
2015,06,03,04,02,12.10
2015,06,03,04,03,12.10
2015,06,03,05,02,11.80
2015,06,03,05,03,11.80
2015,06,03,05,04,11.80
2015,06,03,05,05,11.80
2015,06,03,05,06,11.80
2015,06,03,05,07,11.80
2015,06,03,05,08,11.80
2015,06,03,05,09,11.80
2015,06,03,05,10,11.80
2015,06,03,05,11,11.80
2015,06,03,05,12,11.70
2015,06,03,05,13,11.70
2015,06,03,05,14,11.70
2015,06,03,05,15,11.70
2015,06,03,05,16,11.70
2015,06,03,05,17,11.70
2015,06,03,05,18,11.70
2015,06,03,05,19,11.70
2015,06,03,05,20,11.70
2015,06,03,05,21,11.70
2015,06,03,05,22,11.70
2015,06,03,05,23,11.70
2015,06,03,05,24,11.70
2015,06,03,05,25,11.70
2015,06,03,05,26,11.70
2015,06,03,05,27,11.70
2015,06,03,05,28,11.70
2015,06,03,05,29,11.70
2015,06,03,05,30,11.70
2015,06,03,05,31,11.70
2015,06,03,05,32,11.70
2015,06,03,05,33,11.70
2015,06,03,05,34,11.70
2015,06,03,05,35,11.70
2015,06,03,05,36,11.70
2015,06,03,05,37,11.70
2015,06,03,05,38,11.70
2015,06,03,05,39,11.70
2015,06,03,05,40,11.70
2015,06,03,05,41,11.70
2015,06,03,05,42,11.70
2015,06,03,05,43,11.70
2015,06,03,05,44,11.70
2015,06,03,05,45,11.70
2015,06,03,05,46,11.70
2015,06,03,05,47,11.70
2015,06,03,05,48,11.70
2015,06,03,05,49,11.70
2015,06,03,05,50,11.70
2015,06,03,05,51,11.70
2015,06,03,05,52,11.70
2015,06,03,05,53,11.70
2015,06,03,05,54,11.70
2015,06,03,05,55,11.70
2015,06,03,05,56,11.70
2015,06,03,05,57,11.70
2015,06,03,05,58,11.70
2015,06,03,05,59,11.70
2015,06,03,06,00,11.70
2015,06,03,06,01,11.70
2015,06,03,06,02,11.70
2015,06,03,06,03,11.70
2015,06,03,06,04,11.70
2015,06,03,06,05,11.70
2015,06,03,06,06,11.80
2015,06,03,06,07,11.80
2015,06,03,06,08,11.80
2015,06,03,06,09,11.80
2015,06,03,06,10,11.80
2015,06,03,06,11,11.80
2015,06,03,06,12,11.80
2015,06,03,06,13,11.80
2015,06,03,06,14,11.80
2015,06,03,06,15,11.80
2015,06,03,06,16,11.80
2015,06,03,06,17,11.80
2015,06,03,06,18,11.80
2015,06,03,06,19,11.80
2015,06,03,06,20,11.80
2015,06,03,06,21,11.80
2015,06,03,06,22,11.80
2015,06,03,06,23,11.80
2015,06,03,06,24,11.80
2015,06,03,06,25,11.80
2015,06,03,06,26,11.80
2015,06,03,06,27,11.80
2015,06,03,06,28,11.80
2015,06,03,06,29,11.80
2015,06,03,06,30,11.80
2015,06,03,06,31,11.80
2015,06,03,06,32,11.80
2015,06,03,06,33,11.80
2015,06,03,06,34,11.80
2015,06,03,06,35,11.80
2015,06,03,06,36,11.80
2015,06,03,06,37,11.80
2015,06,03,06,38,11.80
2015,06,03,06,39,11.80
2015,06,03,06,40,11.80
2015,06,03,06,41,11.80
2015,06,03,06,42,11.80
2015,06,03,06,43,11.80
2015,06,03,06,44,11.80
2015,06,03,06,45,11.80
2015,06,03,06,46,11.80
2015,06,03,06,47,11.80
2015,06,03,06,48,11.80
2015,06,03,06,49,11.80
2015,06,03,06,50,11.80
2015,06,03,06,51,11.80
2015,06,03,06,52,11.80
2015,06,03,06,53,11.80
2015,06,03,06,54,11.80
2015,06,03,06,55,11.80
2015,06,03,06,56,11.80
2015,06,03,06,57,11.80
2015,06,03,06,58,11.80
2015,06,03,06,59,11.80
2015,06,03,07,00,11.80
2015,06,03,07,01,11.80
2015,06,03,07,02,11.80
2015,06,03,07,03,11.80
2015,06,03,07,04,11.80
2015,06,03,07,05,11.90
2015,06,03,07,06,11.90
2015,06,03,07,07,11.90
2015,06,03,07,08,11.90
2015,06,03,07,09,11.90
2015,06,03,07,10,11.90
2015,06,03,07,11,11.90
2015,06,03,07,12,11.90
2015,06,03,07,13,11.90
2015,06,03,07,14,11.90
2015,06,03,07,15,11.90
2015,06,03,07,16,12.00
2015,06,03,07,17,12.00
2015,06,03,07,18,12.00
2015,06,03,07,19,12.10
2015,06,03,07,20,12.10
2015,06,03,07,21,12.10
2015,06,03,07,22,12.10
2015,06,03,07,23,12.10
2015,06,03,07,24,12.10
2015,06,03,07,25,12.10
2015,06,03,07,26,12.10
2015,06,03,07,27,12.10
2015,06,03,07,28,12.10
2015,06,03,07,29,12.10
2015,06,03,07,30,12.10
2015,06,03,07,31,12.10
2015,06,03,07,32,12.10
2015,06,03,07,33,12.10
2015,06,03,07,34,12.10
2015,06,03,07,35,12.20
2015,06,03,07,36,12.20
2015,06,03,07,37,12.20
2015,06,03,07,38,12.20
2015,06,03,07,39,12.20
2015,06,03,07,40,12.20
2015,06,03,07,41,12.20
2015,06,03,07,42,12.20
2015,06,03,07,43,12.20
2015,06,03,07,44,12.20
2015,06,03,07,45,12.20
2015,06,03,07,46,12.30
2015,06,03,07,47,12.30
2015,06,03,07,48,12.30
2015,06,03,07,49,12.30
2015,06,03,07,50,12.30
2015,06,03,07,51,12.30
2015,06,03,07,52,12.30
2015,06,03,07,53,12.40
2015,06,03,07,54,12.40
2015,06,03,07,55,12.40
2015,06,03,07,56,12.40
2015,06,03,07,57,12.30
2015,06,03,07,58,12.40
2015,06,03,07,59,12.40
2015,06,03,08,00,12.40
2015,06,03,08,01,12.40
2015,06,03,08,02,12.40
2015,06,03,08,03,12.40
2015,06,03,08,04,12.50
2015,06,03,08,05,12.50
2015,06,03,08,06,12.50
2015,06,03,08,07,12.50
2015,06,03,08,08,12.50
2015,06,03,08,09,12.50
2015,06,03,08,10,12.50
2015,06,03,08,11,12.50
2015,06,03,08,12,12.50
2015,06,03,08,13,12.50
2015,06,03,08,14,12.50
2015,06,03,08,15,12.60
2015,06,03,08,16,12.60
2015,06,03,08,17,12.60
2015,06,03,08,18,12.60
2015,06,03,08,19,12.60
2015,06,03,08,20,12.60
2015,06,03,08,21,12.60
2015,06,03,08,22,12.60
2015,06,03,08,23,12.60
2015,06,03,08,24,12.60
2015,06,03,08,25,12.60
2015,06,03,08,26,12.60
2015,06,03,08,27,12.60
2015,06,03,08,28,12.60
2015,06,03,08,29,12.60
2015,06,03,08,30,12.70
2015,06,03,08,31,12.70
2015,06,03,08,32,12.70
2015,06,03,08,33,12.70
2015,06,03,08,34,12.70
2015,06,03,08,35,12.80
2015,06,03,08,36,12.80
2015,06,03,08,37,12.80
2015,06,03,08,38,12.80
2015,06,03,08,39,12.90
2015,06,03,08,40,12.90
2015,06,03,08,41,12.90
2015,06,03,08,42,12.90
2015,06,03,08,43,13.00
2015,06,03,08,44,13.00
2015,06,03,08,45,13.10
2015,06,03,08,46,13.10
2015,06,03,08,47,13.10
2015,06,03,08,48,13.10
2015,06,03,08,49,13.20
2015,06,03,08,50,13.20
2015,06,03,08,51,13.20
2015,06,03,08,52,13.20
2015,06,03,08,53,13.20
2015,06,03,08,54,13.20
2015,06,03,08,55,13.20
2015,06,03,08,56,13.20
2015,06,03,08,57,13.20
2015,06,03,08,58,13.20
2015,06,03,08,59,13.20
2015,06,03,09,00,13.20
2015,06,03,09,01,13.20
2015,06,03,09,02,13.20
2015,06,03,09,03,13.30
2015,06,03,09,04,13.30
2015,06,03,09,05,13.30
2015,06,03,09,06,13.30
2015,06,03,09,07,13.30
2015,06,03,09,08,13.30
2015,06,03,09,09,13.30
2015,06,03,09,10,13.30
2015,06,03,09,11,13.30
2015,06,03,09,12,13.30
2015,06,03,09,13,13.30
2015,06,03,09,14,13.30
2015,06,03,09,15,13.30
2015,06,03,09,16,13.30
2015,06,03,09,17,13.40
2015,06,03,09,18,13.40
2015,06,03,09,19,13.50
2015,06,03,09,20,13.50
2015,06,03,09,21,13.60
2015,06,03,09,22,13.60
2015,06,03,09,23,13.60
2015,06,03,09,24,13.60
2015,06,03,09,25,13.60
2015,06,03,09,26,13.60
2015,06,03,09,27,13.60
2015,06,03,09,28,13.60
2015,06,03,09,29,13.60
2015,06,03,09,30,13.60
2015,06,03,09,31,13.60
2015,06,03,09,32,13.70
2015,06,03,09,33,13.70
2015,06,03,09,34,13.60
2015,06,03,09,35,13.60
2015,06,03,09,36,13.60
2015,06,03,09,37,13.70
2015,06,03,09,38,13.70
2015,06,03,09,39,13.70
2015,06,03,09,40,13.70
2015,06,03,09,41,13.70
2015,06,03,09,42,13.70
2015,06,03,09,43,13.70
2015,06,03,09,44,13.80
2015,06,03,09,45,13.80
2015,06,03,09,46,13.80
2015,06,03,09,47,13.90
2015,06,03,09,48,13.90
2015,06,03,09,49,13.90
2015,06,03,09,50,13.90
2015,06,03,09,51,13.90
2015,06,03,09,52,13.90
2015,06,03,09,53,13.90
2015,06,03,09,54,13.90
2015,06,03,09,55,13.90
2015,06,03,09,56,13.90
2015,06,03,09,57,13.90
2015,06,03,09,58,14.00
2015,06,03,09,59,14.10
2015,06,03,10,00,14.10
2015,06,03,10,01,14.10
2015,06,03,10,02,14.10
2015,06,03,10,03,14.10
2015,06,03,10,04,14.10
2015,06,03,10,05,14.10
2015,06,03,10,06,14.10
2015,06,03,10,07,14.10
2015,06,03,10,08,14.00
2015,06,03,10,09,14.00
2015,06,03,10,10,14.00
2015,06,03,10,11,14.00
2015,06,03,10,12,14.00
2015,06,03,10,13,14.00
2015,06,03,10,14,14.00
2015,06,03,10,15,14.10
2015,06,03,10,16,14.00
2015,06,03,10,17,14.00
2015,06,03,10,18,14.00
2015,06,03,10,19,14.00
2015,06,03,10,20,14.10
2015,06,03,10,21,14.10
2015,06,03,10,22,14.20
2015,06,03,10,23,14.10
2015,06,03,10,24,14.10
2015,06,03,10,25,14.10
2015,06,03,10,26,14.10
2015,06,03,10,27,14.00
2015,06,03,10,28,14.00
2015,06,03,10,29,14.00
2015,06,03,10,30,13.90
2015,06,03,10,31,13.90
2015,06,03,10,32,13.90
2015,06,03,10,33,13.80
2015,06,03,10,34,13.80
2015,06,03,10,35,13.80
2015,06,03,10,36,13.80
2015,06,03,10,37,13.80
2015,06,03,10,38,13.90
2015,06,03,10,39,13.90
2015,06,03,10,40,14.00
2015,06,03,10,41,14.00
2015,06,03,10,42,14.00
2015,06,03,10,43,14.00
2015,06,03,10,44,14.00
2015,06,03,10,45,14.10
2015,06,03,10,46,14.10
2015,06,03,10,47,14.10
2015,06,03,10,48,14.20
2015,06,03,10,49,14.20
2015,06,03,10,50,14.30
2015,06,03,10,51,14.30
2015,06,03,10,52,14.20
2015,06,03,10,53,14.20
2015,06,03,10,54,14.20
2015,06,03,10,55,14.30
2015,06,03,10,56,14.30
2015,06,03,10,57,14.40
2015,06,03,10,58,14.40
2015,06,03,10,59,14.50
2015,06,03,11,00,14.60
2015,06,03,11,01,14.60
2015,06,03,11,02,14.70
2015,06,03,11,03,14.70
2015,06,03,11,04,14.70
2015,06,03,11,05,14.80
2015,06,03,11,06,14.80
2015,06,03,11,07,14.80
2015,06,03,11,08,14.90
2015,06,03,11,09,14.90
2015,06,03,11,10,14.90
2015,06,03,11,11,14.90
2015,06,03,11,12,14.80
2015,06,03,11,13,14.80
2015,06,03,11,14,14.90
2015,06,03,11,15,14.80
2015,06,03,11,16,14.80
2015,06,03,11,17,14.80
2015,06,03,11,18,14.80
2015,06,03,11,19,14.80
2015,06,03,11,20,14.80
2015,06,03,11,21,14.80
2015,06,03,11,22,14.70
2015,06,03,11,23,14.70
2015,06,03,11,24,14.70
2015,06,03,11,25,14.70
2015,06,03,11,26,14.70
2015,06,03,11,27,14.80
2015,06,03,11,28,14.90
2015,06,03,11,29,15.00
2015,06,03,11,30,15.10
2015,06,03,11,31,15.20
2015,06,03,11,32,15.30
2015,06,03,11,33,15.30
2015,06,03,11,34,15.40
2015,06,03,11,35,15.40
2015,06,03,11,36,15.40
2015,06,03,11,37,15.40
2015,06,03,11,38,15.30
2015,06,03,11,39,15.30
2015,06,03,11,40,15.30
2015,06,03,11,41,15.30
2015,06,03,11,42,15.30
2015,06,03,11,43,15.30
2015,06,03,11,44,15.40
2015,06,03,11,45,15.50
2015,06,03,11,46,15.60
2015,06,03,11,47,15.60
2015,06,03,11,48,15.60
2015,06,03,11,49,15.70
2015,06,03,11,50,15.70
2015,06,03,11,51,15.80
2015,06,03,11,52,15.80
2015,06,03,11,53,15.80
2015,06,03,11,54,15.80
2015,06,03,11,55,15.90
2015,06,03,11,56,16.10
2015,06,03,11,57,16.20
2015,06,03,11,58,16.20
2015,06,03,11,59,16.20
2015,06,03,12,00,16.30
2015,06,03,12,01,16.30
2015,06,03,12,02,16.40
2015,06,03,12,03,16.40
2015,06,03,12,04,16.50
2015,06,03,12,05,16.50
2015,06,03,12,06,16.50
2015,06,03,12,07,16.40
2015,06,03,12,08,16.40
2015,06,03,12,09,16.30
2015,06,03,12,10,16.30
2015,06,03,12,11,16.40
2015,06,03,12,12,16.40
2015,06,03,12,13,16.40
2015,06,03,12,14,16.50
2015,06,03,12,15,16.50
2015,06,03,12,16,16.60
2015,06,03,12,17,16.50
2015,06,03,12,18,16.40
2015,06,03,12,19,16.30
2015,06,03,12,20,16.30
2015,06,03,12,21,16.30
2015,06,03,12,22,16.30
2015,06,03,12,23,16.20
2015,06,03,12,24,16.20
2015,06,03,12,25,16.20
2015,06,03,12,26,16.30
2015,06,03,12,27,16.20
2015,06,03,12,28,16.10
2015,06,03,12,29,16.10
2015,06,03,12,30,16.00
2015,06,03,12,31,16.00
2015,06,03,12,32,16.00
2015,06,03,12,33,15.90
2015,06,03,12,34,16.00
2015,06,03,12,35,16.00
2015,06,03,12,36,16.00
2015,06,03,12,37,16.00
2015,06,03,12,38,16.10
2015,06,03,12,39,16.10
2015,06,03,12,40,16.10
2015,06,03,12,41,16.20
2015,06,03,12,42,16.30
2015,06,03,12,43,16.30
2015,06,03,12,44,16.30
2015,06,03,12,45,16.30
2015,06,03,12,46,16.20
2015,06,03,12,47,16.10
2015,06,03,12,48,16.10
2015,06,03,12,49,16.10
2015,06,03,12,50,16.00
2015,06,03,12,51,15.90
2015,06,03,12,52,15.90
2015,06,03,12,53,15.90
2015,06,03,12,54,15.90
2015,06,03,12,55,16.00
2015,06,03,12,56,16.00
2015,06,03,12,57,15.90
2015,06,03,12,58,15.90
2015,06,03,12,59,15.90
2015,06,03,13,00,15.80
2015,06,03,13,01,15.80
2015,06,03,13,02,15.80
2015,06,03,13,03,15.70
2015,06,03,13,04,15.70
2015,06,03,13,05,15.70
2015,06,03,13,06,15.70
2015,06,03,13,07,15.80
2015,06,03,13,08,15.80
2015,06,03,13,09,15.70
2015,06,03,13,10,15.70
2015,06,03,13,11,15.70
2015,06,03,13,12,15.70
2015,06,03,13,13,15.70
2015,06,03,13,14,15.70
2015,06,03,13,15,15.70
2015,06,03,13,16,15.80
2015,06,03,13,17,15.80
2015,06,03,13,18,15.80
2015,06,03,13,19,15.70
2015,06,03,13,20,15.60
2015,06,03,13,21,15.60
2015,06,03,13,22,15.60
2015,06,03,13,23,15.60
2015,06,03,13,24,15.50
2015,06,03,13,25,15.50
2015,06,03,13,26,15.50
2015,06,03,13,27,15.60
2015,06,03,13,28,15.60
2015,06,03,13,29,15.60
2015,06,03,13,30,15.60
2015,06,03,13,31,15.60
2015,06,03,13,32,15.60
2015,06,03,13,33,15.60
2015,06,03,13,34,15.60
2015,06,03,13,35,15.50
2015,06,03,13,36,15.50
2015,06,03,13,37,15.50
2015,06,03,13,38,15.50
2015,06,03,13,39,15.50
2015,06,03,13,40,15.50
2015,06,03,13,41,15.40
2015,06,03,13,42,15.40
2015,06,03,13,43,15.40
2015,06,03,13,44,15.40
2015,06,03,13,45,15.40
2015,06,03,13,46,15.40
2015,06,03,13,47,15.40
2015,06,03,13,48,15.40
2015,06,03,13,49,15.40
2015,06,03,13,50,15.40
2015,06,03,13,51,15.40
2015,06,03,13,52,15.50
2015,06,03,13,53,15.50
2015,06,03,13,54,15.50
2015,06,03,13,55,15.50
2015,06,03,13,56,15.50
2015,06,03,13,57,15.60
2015,06,03,13,58,15.60
2015,06,03,13,59,15.60
2015,06,03,14,00,15.60
2015,06,03,14,01,15.70
2015,06,03,14,02,15.70
2015,06,03,14,03,15.70
2015,06,03,14,04,15.70
2015,06,03,14,05,15.60
2015,06,03,14,06,15.60
2015,06,03,14,07,15.50
2015,06,03,14,08,15.50
2015,06,03,14,09,15.50
2015,06,03,14,10,15.50
2015,06,03,14,11,15.60
2015,06,03,14,12,15.60
2015,06,03,14,13,15.60
2015,06,03,14,14,15.60
2015,06,03,14,15,15.60
2015,06,03,14,16,15.70
2015,06,03,14,17,15.70
2015,06,03,14,18,15.80
2015,06,03,14,19,15.80
2015,06,03,14,20,15.70
2015,06,03,14,21,15.70
2015,06,03,14,22,15.70
2015,06,03,14,23,15.70
2015,06,03,14,24,15.70
2015,06,03,14,25,15.70
2015,06,03,14,26,15.80
2015,06,03,14,27,15.80
2015,06,03,14,28,15.90
2015,06,03,14,29,16.00
2015,06,03,14,30,16.00
2015,06,03,14,31,16.00
2015,06,03,14,32,16.00
2015,06,03,14,33,16.10
2015,06,03,14,34,16.10
2015,06,03,14,35,16.00
2015,06,03,14,36,16.00
2015,06,03,14,37,16.00
2015,06,03,14,38,16.00
2015,06,03,14,39,16.00
2015,06,03,14,40,16.00
2015,06,03,14,41,16.10
2015,06,03,14,42,16.20
2015,06,03,14,43,16.20
2015,06,03,14,44,16.20
2015,06,03,14,45,16.20
2015,06,03,14,46,16.20
2015,06,03,14,47,16.10
2015,06,03,14,48,16.10
2015,06,03,14,49,16.10
2015,06,03,14,50,16.10
2015,06,03,14,51,16.10
2015,06,03,14,52,16.10
2015,06,03,14,53,16.20
2015,06,03,14,54,16.20
2015,06,03,14,55,16.20
2015,06,03,14,56,16.30
2015,06,03,14,57,16.20
2015,06,03,14,58,16.30
2015,06,03,14,59,16.30
2015,06,03,15,00,16.30
2015,06,03,15,01,16.30
2015,06,03,15,02,16.30
2015,06,03,15,03,16.20
2015,06,03,15,04,16.20
2015,06,03,15,05,16.10
2015,06,03,15,06,16.00
2015,06,03,15,07,16.00
2015,06,03,15,08,16.00
2015,06,03,15,09,15.90
2015,06,03,15,10,15.90
2015,06,03,15,11,15.90
2015,06,03,15,12,15.90
2015,06,03,15,13,15.90
2015,06,03,15,14,16.00
2015,06,03,15,15,16.00
2015,06,03,15,16,16.00
2015,06,03,15,17,16.10
2015,06,03,15,18,16.20
2015,06,03,15,19,16.30
2015,06,03,15,20,16.30
2015,06,03,15,21,16.30
2015,06,03,15,22,16.30
2015,06,03,15,23,16.30
2015,06,03,15,24,16.30
2015,06,03,15,25,16.20
2015,06,03,15,26,16.20
2015,06,03,15,27,16.10
2015,06,03,15,28,16.10
2015,06,03,15,29,16.10
2015,06,03,15,30,16.00
2015,06,03,15,31,16.00
2015,06,03,15,32,16.00
2015,06,03,15,33,16.00
2015,06,03,15,34,16.00
2015,06,03,15,35,16.00
2015,06,03,15,36,16.00
2015,06,03,15,37,15.90
2015,06,03,15,38,15.90
2015,06,03,15,39,15.90
2015,06,03,15,40,15.90
2015,06,03,15,41,16.00
2015,06,03,15,42,16.00
2015,06,03,15,43,16.10
2015,06,03,15,44,16.10
2015,06,03,15,45,16.10
2015,06,03,15,46,16.10
2015,06,03,15,47,16.10
2015,06,03,15,48,16.10
2015,06,03,15,49,16.10
2015,06,03,15,50,16.10
2015,06,03,15,51,16.10
2015,06,03,15,52,16.10
2015,06,03,15,53,16.10
2015,06,03,15,54,16.10
2015,06,03,15,55,16.10
2015,06,03,15,56,16.10
2015,06,03,15,57,16.20
2015,06,03,15,58,16.20
2015,06,03,15,59,16.20
2015,06,03,16,00,16.20
2015,06,03,16,01,16.20
2015,06,03,16,02,16.30
2015,06,03,16,03,16.30
2015,06,03,16,04,16.30
2015,06,03,16,05,16.30
2015,06,03,16,06,16.40
2015,06,03,16,07,16.40
2015,06,03,16,08,16.40
2015,06,03,16,09,16.40
2015,06,03,16,10,16.40
2015,06,03,16,11,16.40
2015,06,03,16,12,16.40
2015,06,03,16,13,16.40
2015,06,03,16,14,16.40
2015,06,03,16,15,16.50
2015,06,03,16,16,16.50
2015,06,03,16,17,16.50
2015,06,03,16,18,16.60
2015,06,03,16,19,16.60
2015,06,03,16,20,16.60
2015,06,03,16,21,16.70
2015,06,03,16,22,16.70
2015,06,03,16,23,16.80
2015,06,03,16,24,16.80
2015,06,03,16,25,16.80
2015,06,03,16,26,16.80
2015,06,03,16,27,16.80
2015,06,03,16,28,16.80
2015,06,03,16,29,16.80
2015,06,03,16,30,16.90
2015,06,03,16,31,16.90
2015,06,03,16,32,16.90
2015,06,03,16,33,17.00
2015,06,03,16,34,17.10
2015,06,03,16,35,17.10
2015,06,03,16,36,17.10
2015,06,03,16,37,17.10
2015,06,03,16,38,17.00
2015,06,03,16,39,17.10
2015,06,03,16,40,17.10
2015,06,03,16,41,17.10
2015,06,03,16,42,17.20
2015,06,03,16,43,17.10
2015,06,03,16,44,17.10
2015,06,03,16,45,17.10
2015,06,03,16,46,17.00
2015,06,03,16,47,17.00
2015,06,03,16,48,16.90
2015,06,03,16,49,16.90
2015,06,03,16,50,16.90
2015,06,03,16,51,16.90
2015,06,03,16,52,16.90
2015,06,03,16,53,16.90
2015,06,03,16,54,16.90
2015,06,03,16,55,16.90
2015,06,03,16,56,16.90
2015,06,03,16,57,16.90
2015,06,03,16,58,16.80
2015,06,03,16,59,16.80
2015,06,03,17,00,16.80
2015,06,03,17,01,16.90
2015,06,03,17,02,16.90
2015,06,03,17,03,16.90
2015,06,03,17,04,16.90
2015,06,03,17,05,16.80
2015,06,03,17,06,16.80
2015,06,03,17,07,16.80
2015,06,03,17,08,16.80
2015,06,03,17,09,16.80
2015,06,03,17,10,16.80
2015,06,03,17,11,16.70
2015,06,03,17,12,16.70
2015,06,03,17,13,16.60
2015,06,03,17,14,16.60
2015,06,03,17,15,16.50
2015,06,03,17,16,16.50
2015,06,03,17,17,16.40
2015,06,03,17,18,16.40
2015,06,03,17,19,16.40
2015,06,03,17,20,16.40
2015,06,03,17,21,16.50
2015,06,03,17,22,16.50
2015,06,03,17,23,16.60
2015,06,03,17,24,16.60
2015,06,03,17,25,16.60
2015,06,03,17,26,16.60
2015,06,03,17,27,16.60
2015,06,03,17,28,16.60
2015,06,03,17,29,16.60
2015,06,03,17,30,16.60
2015,06,03,17,31,16.60
2015,06,03,17,32,16.60
2015,06,03,17,33,16.60
2015,06,03,17,34,16.60
2015,06,03,17,35,16.60
2015,06,03,17,36,16.60
2015,06,03,17,37,16.60
2015,06,03,17,38,16.60
2015,06,03,17,39,16.60
2015,06,03,17,40,16.60
2015,06,03,17,41,16.60
2015,06,03,17,42,16.60
2015,06,03,17,43,16.60
2015,06,03,17,44,16.70
2015,06,03,17,45,16.70
2015,06,03,17,46,16.70
2015,06,03,17,47,16.80
2015,06,03,17,48,16.80
2015,06,03,17,49,16.80
2015,06,03,17,50,16.90
2015,06,03,17,51,16.90
2015,06,03,17,52,16.90
2015,06,03,17,53,16.90
2015,06,03,17,54,16.90
2015,06,03,17,55,16.90
2015,06,03,17,56,16.90
2015,06,03,17,57,16.80
2015,06,03,17,58,16.80
2015,06,03,17,59,16.80
2015,06,03,18,00,16.80
2015,06,03,18,01,16.90
2015,06,03,18,02,16.90
2015,06,03,18,03,17.00
2015,06,03,18,04,17.00
2015,06,03,18,05,17.10
2015,06,03,18,06,17.10
2015,06,03,18,07,17.10
2015,06,03,18,08,17.10
2015,06,03,18,09,17.10
2015,06,03,18,10,17.20
2015,06,03,18,11,17.20
2015,06,03,18,12,17.10
2015,06,03,18,13,17.10
2015,06,03,18,14,17.10
2015,06,03,18,15,17.10
2015,06,03,18,16,17.10
2015,06,03,18,17,17.10